STARLINK-30087

decayed
NORAD ID: 56691 Int'l Des: 2023-067 Owner: SPXS Country: US Constellation: starlink
LEOCIRCULAR
Gruppe

Über STARLINK-30087

Beschreibung wird geladen...

Höhenverlauf

Altitude vs Time

uPlot chart will show altitude changes over time

Zweizeiliger Elementsatz

1 56691U 23067D 24254.06906337 .14841291 88385-5 54813-2 0 9996
2 56691 42.9673 263.6538 0018508 113.7449 300.0820 16.23086685 73844
Epoch: 10. Sept. 2024 • Age: 8912 hours

Aktueller Status

Position data unavailable
Startdatum 19. Mai 2023
Alter 2.3 years
Verglühungsdatum 10. Sept. 2024
Typ internet

Technische Details

Klassifizierung Payload
Masse 730.00 kg
Trockenmasse 700.00 kg
Gesamtmasse 730.00 kg
Länge 0.30 m
Durchmesser 4.10 m
Spannweite 29.00 m
Form Box + pan
Hersteller SPXS
Bus-Typ Starlink V2M
Phasenstatus Reentered
Besitzer/Staat SPXS/US

Große Konstellationen

Loading constellations...